User: anonymous   Login
Location: Unspecified
(0.0000°N, 0.0000°E)
Time: 15:26:32
(UTC+00:00)
Language:

CICERO 7 - Orbit

View from above orbital plane
View from above orbital plane
View from above satellite
View from above satellite

Ground track
Ground track

The orbit data is extracted from the following two-line orbital elements,

1 43143U 18004AJ  22279.80355029  .00033915  00000-0  94103-3 0  9993
2 43143  97.3665 358.5798 0004286 331.1678  28.9329 15.36834748263651
Epoch (UTC): 06 October 2022 19:17:06
Eccentricity: 0.0004286
inclination: 97.3665°
perigee height: 452 km
apogee height: 458 km
right ascension of ascending node: 358.5798°
argument of perigee: 331.1678°
revolutions per day: 15.36834748
mean anomaly at epoch: 28.9329°
orbit number at epoch: 26365

The dashed part of the orbit path shows where the satellite is in the earth's shadow,  

DLR